User: anonymous   Login
Location: Unspecified
(0.0000°N, 0.0000°E)
Time: 15:21:23
(UTC+02:00)
Language:

CZ-4B R/B - Orbit

View from above orbital plane
View from above orbital plane
View from above satellite
View from above satellite

Ground track
Ground track

The orbit data is extracted from the following two-line orbital elements,

1 33410U 08053C   16239.87981675  .00000620  00000-0  50023-4 0  9991
2 33410  97.6880 207.9766 0123166  98.3905 263.1302 14.97826367426722
Epoch (UTC): 26 August 2016 21:06:56
Eccentricity: 0.0123166
inclination: 97.6880°
perigee height: 488 km
apogee height: 659 km
right ascension of ascending node: 207.9766°
argument of perigee: 98.3905°
revolutions per day: 14.97826367
mean anomaly at epoch: 263.1302°
orbit number at epoch: 42672

The dashed part of the orbit path shows where the satellite is in the earth's shadow,  

DLR